ROMMA est une association bénévole à but non lucratif. Votre soutien est indispensable : ADHERER à ROMMA ou FAIRE un DON

Chambon - (38, Isère)

Oisans (2460 m)   Longitude: 06° 10' 42" E   Latitude: 45° 01' 32" N Station partenaire n°803
 

Détail journalier du     <<     >>

Température Humidité Vent Dir Rafale Dir. rafale Neige 1 Neige 2
Heure (°C) (%) (km/h) (km/h) (cm) (cm)
01:00 -3.810016NNE25NE193239
02:00 -3.99912NNE26NNE193239
03:00 -3.910012NNE19NE193239
04:00 -4.19915NNE23NE193239
05:00 -4.19915NE23NE193239
06:00 -4.39912NNE21NNE193239
07:00 -4.39910NNE15NE193239
08:00 -4.8996NE14NE193239
09:00 -4.6982NE8NE193239
10:00 -2.7962NE8NE193239
11:00 -3.6975NE12NE193239
12:00 -2.1925N12NNE193238
13:00 -0.8873N9NNE193238
14:00 0.3812NNE8NNE192238
15:00 -0.7873NNE7NNE191238
16:00 -1.9955NE14NE191238
17:00 -2.69911NE21NE192238
18:00 -2.89913NE19NE191238
19:00 -3.19917NNE22NNE192238
20:00 -3.210018NNE25NNE192238
21:00 -3.210016NE24NE191238
22:00 -3.210014NE21ENE191238
23:00 -3.110014NE21NE191238
minuit -3.110013NE20NE191238

Graphique du 11-04-2019

 

Serveur OMMA